Home   Weather   Weymouth   Past weeks

Flag for United Kingdom Past Weather in Weymouth, England, United Kingdom — Yesterday and Last 2 Weeks

Now
61 °F

Cool.


Feels Like: 61 °F
Forecast: 56 / 62 °F
Wind: 20 mph from West

Location: Isle Of Portland

Current Time: Sep 29, 2016 at 12:59:37 PM

Latest Report: Sep 29, 2016 at 12:00 PM


Visibility: 13 mi

Pressure: 30.01 "Hg

Humidity: 76%

Dew Point: 53 °F

Location of WeymouthLocation

Past Weather in Weymouth — Graph

°F

Weymouth Temperature Yesterday

Maximum temperature yesterday: 64 °F (at 1:00 PM)
Minimum temperature yesterday: 58 °F (at 3:00 AM)
Average temperature yesterday: 61 °F

High & Low Weather Summary for the Past Weeks

 TemperatureHumidityPressure
High74 °F (Sep 15, 2:00 PM)100% (Sep 27, 8:00 AM)30.33 "Hg (Sep 27, 8:00 AM)
Low56 °F (Sep 18, 6:00 AM)56% (Sep 17, 3:00 PM)29.75 "Hg (Sep 14, 8:00 AM)
Average62 °F83%30.09 "Hg
* Reported Sep 14 8:00 AM — Sep 29 8:00 AM, Weymouth, Weather by CustomWeather, © 2016

Note: Actual official high and low records may vary slightly from our data, if they occured in-between our weather recording intervals... More about our weather records

Advertising

Weymouth Weather History for the Previous 24 Hours

Scroll right to see more
 ConditionsComfort  
Time TempWeatherWind HumidityBarometerVisibility
8:00 AM
Thu, Sep 29
62 °FCool.28 mph99%30.01 "Hg3 mi
7:00 AM61 °FCool.29 mph99%30.02 "Hg5 mi
6:00 AM61 °FFog.28 mph99%30.04 "Hg2 mi
5:00 AM61 °FCool.31 mph99%30.06 "Hg4 mi
4:00 AM61 °FLight rain. Overcast.30 mph99%30.08 "Hg2 mi
3:00 AM61 °FFog.28 mph99%30.10 "Hg2 mi
2:00 AM61 °FCool.24 mph99%30.13 "Hg2 mi
1:00 AM61 °FFog.28 mph100%30.15 "Hg3 mi
12:00 AM61 °FCool.24 mph100%30.18 "Hg3 mi
11:00 PM
Wed, Sep 28
61 °FFog.22 mph99%30.20 "Hg2 mi
10:00 PM61 °FFog.23 mph99%30.21 "Hg3 mi
9:00 PM61 °FFog.21 mph99%30.23 "Hg3 mi
8:00 PM61 °FFog.23 mph100%30.24 "Hg2 mi
7:00 PM61 °FFog.20 mph99%30.25 "Hg2 mi
6:00 PM61 °FFog.20 mph97%30.27 "Hg4 mi
4:00 PM62 °FSmoke.17 mph93%30.29 "Hg4 mi
3:00 PM63 °FSmoke.18 mph90%30.30 "Hg5 mi
2:00 PM63 °FSmoke.21 mph85%30.31 "Hg6 mi
1:00 PM64 °FSmoke.21 mph81%30.32 "Hg6 mi
12:00 PM62 °FSmoke.20 mph87%30.33 "Hg6 mi
Weather by CustomWeather, © 2016

See weather overviewHow to use our weather pages